User: anonymous   Login
Location: Unspecified
(0.0000°N, 0.0000°E)
Time: 15:48:25
(UTC+00:00)
Language:

TEN-KOH - Orbit

View from above orbital plane
View from above orbital plane
View from above satellite
View from above satellite

Ground track
Ground track

The orbit data is extracted from the following two-line orbital elements,

1 43677U 18084G   22280.33594623  .00003263  00000-0  33227-3 0  9991
2 43677  97.9797  51.5181 0014421 262.4095  97.5485 14.91377387214351
Epoch (UTC): 07 October 2022 08:03:45
Eccentricity: 0.0014421
inclination: 97.9797°
perigee height: 583 km
apogee height: 603 km
right ascension of ascending node: 51.5181°
argument of perigee: 262.4095°
revolutions per day: 14.91377387
mean anomaly at epoch: 97.5485°
orbit number at epoch: 21435

The dashed part of the orbit path shows where the satellite is in the earth's shadow,  

DLR